Weather History for Jacksonville Craig, FL

Change the Weather History Date:

Monday, November 12, 2012

  Actual Average Record
Temperature  
Mean Temperature 68 °F -  
Max Temperature 77 °F 71 °F 82 °F (2002)
Min Temperature 60 °F 53 °F 36 °F (2011)
Cooling Degree Days 4    
Growing Degree Days 18 (Base 50)    
Moisture  
Dew Point 63 °F    
Average Humidity 89    
Maximum Humidity 100    
Minimum Humidity 62    
Precipitation  
Precipitation 0.33 in - - ()
Sea Level Pressure  
Sea Level Pressure 30.24 in    
Wind  
Wind Speed 2 mph (SE)    
Max Wind Speed 12 mph    
Max Gust Speed -    
Visibility 6 miles    
Events Fog , Rain    
Averages and records for this station are not official NWS values.
T = Trace of Precipitation, MM = Missing Value Source: NWS Daily Summary

Daily Weather History Graph

Daily Weather History Graph

Search for Another Location

Airport:

Trip Planner

Search our weather history database for the weather conditions in past years. The results will help you decide how hot, cold, wet, or windy it might be!

Date:

Astronomy

Nov. 12, 2012 Rise Set
Actual Time 6:49 AM EST 5:30 PM EST
Civil Twilight 6:24 AM EST 5:55 PM EST
Nautical Twilight 5:55 AM EST 6:24 PM EST
Astronomical Twilight 5:26 AM EST 6:53 PM EST
Moon 5:17 AM EST (11/12) 4:32 PM EST (11/12)
Length of Visible Light 11h 31m
Length of Day
10h 40m
Waning Crescent, 2% of the Moon is Illuminated
Nov 12
Waning Crescent
Nov 13
New
Nov 20
First Quarter
Nov 28
Full
Dec 6
Last Quarter

Hourly Weather History & Observations

Time (EST) Temp. Dew Point Humidity Pressure Visibility Wind Dir Wind Speed Gust Speed Precip Events Conditions
12:53 AM 68.0 °F 62.1 °F 81% 30.27 in 10.0 mi Calm Calm - N/A   Clear
1:53 AM 64.9 °F 62.1 °F 90% 30.27 in 10.0 mi Calm Calm - N/A   Overcast
2:53 AM 66.9 °F 64.0 °F 90% 30.26 in 5.0 mi Calm Calm - 0.02 in Rain Light Rain
3:36 AM 66.2 °F 64.4 °F 94% 30.26 in 2.5 mi South 3.5 mph - 0.08 in Rain Light Rain
3:44 AM 66.2 °F 64.4 °F 94% 30.26 in 9.0 mi South 3.5 mph - 0.08 in Rain Light Rain
3:53 AM 66.9 °F 64.9 °F 93% 30.25 in 10.0 mi Calm Calm - 0.08 in   Overcast
4:53 AM 66.9 °F 64.9 °F 93% 30.25 in 2.5 mi Calm Calm - 0.02 in Rain Light Rain
5:03 AM 66.2 °F 64.4 °F 94% 30.25 in 8.0 mi Calm Calm - 0.00 in   Overcast
5:53 AM 64.9 °F 63.0 °F 93% 30.25 in 4.0 mi Calm Calm - 0.00 in   Overcast
6:01 AM 66.2 °F 64.4 °F 94% 30.25 in 4.0 mi Calm Calm - 0.00 in Rain Light Rain
6:34 AM 64.4 °F 62.6 °F 94% 30.25 in 1.8 mi Calm Calm - 0.00 in Rain Light Rain
6:41 AM 64.4 °F 62.6 °F 94% 30.25 in 0.5 mi Calm Calm - 0.00 in Fog , Rain Light Rain
6:48 AM 64.4 °F 62.6 °F 94% 30.25 in 3.0 mi Calm Calm - 0.00 in Fog Patches of Fog
6:53 AM 64.0 °F 63.0 °F 96% 30.25 in 3.0 mi Calm Calm - 0.00 in Fog Patches of Fog
7:53 AM 66.9 °F 64.9 °F 93% 30.27 in 9.0 mi SE 4.6 mph - 0.01 in   Overcast
8:53 AM 70.0 °F 66.0 °F 87% 30.29 in 10.0 mi ESE 3.5 mph - N/A   Overcast
9:53 AM 75.0 °F 66.0 °F 73% 30.29 in 10.0 mi SE 5.8 mph - N/A   Mostly Cloudy
10:53 AM 75.9 °F 64.9 °F 69% 30.28 in 10.0 mi SSE 6.9 mph - N/A   Overcast
11:53 AM 77.0 °F 64.0 °F 64% 30.26 in 10.0 mi South 8.1 mph - N/A   Overcast
12:53 PM 77.0 °F 63.0 °F 62% 30.25 in 10.0 mi SE 9.2 mph - 0.00 in   Overcast
1:53 PM 75.9 °F 63.0 °F 64% 30.22 in 10.0 mi ESE 10.4 mph - N/A   Overcast
2:53 PM 75.0 °F 64.0 °F 69% 30.22 in 10.0 mi ESE 9.2 mph - N/A   Mostly Cloudy
3:04 PM 73.4 °F 64.4 °F 73% 30.22 in 1.8 mi South 11.5 mph - 0.05 in Rain Heavy Rain
3:53 PM 70.0 °F 64.9 °F 84% 30.21 in 10.0 mi East 8.1 mph - 0.19 in   Overcast
4:53 PM 70.0 °F 66.0 °F 87% 30.21 in 10.0 mi ESE 3.5 mph - N/A   Overcast
5:53 PM 69.1 °F 66.0 °F 90% 30.20 in 10.0 mi ESE 3.5 mph - N/A   Overcast
6:53 PM 68.0 °F 64.9 °F 90% 30.22 in 8.0 mi Calm Calm - N/A   Clear
7:53 PM 66.0 °F 64.0 °F 93% 30.22 in 8.0 mi Calm Calm - N/A   Partly Cloudy
8:05 PM 64.4 °F 62.6 °F 94% 30.23 in 1.8 mi Calm Calm - N/A   Scattered Clouds
8:25 PM 64.4 °F 62.6 °F 94% 30.23 in 7.0 mi Calm Calm - N/A   Mostly Cloudy
8:53 PM 63.0 °F 62.1 °F 97% 30.22 in 4.0 mi Calm Calm - N/A   Overcast
9:20 PM 64.4 °F 62.6 °F 94% 30.22 in 4.0 mi Calm Calm - N/A   Scattered Clouds
9:53 PM 64.0 °F 63.0 °F 96% 30.22 in 4.0 mi Calm Calm - N/A   Partly Cloudy
10:50 PM 62.6 °F 62.6 °F 100% 30.21 in 7.0 mi Calm Calm - 0.01 in   Partly Cloudy
10:53 PM 63.0 °F 62.1 °F 97% 30.21 in 7.0 mi Calm Calm - 0.01 in   Partly Cloudy
11:00 PM 62.6 °F 60.8 °F 94% 30.21 in 1.8 mi Calm Calm - N/A   Partly Cloudy
11:05 PM 62.6 °F 62.6 °F 100% 30.21 in 0.8 mi Calm Calm - N/A   Mist
11:13 PM 62.6 °F 62.6 °F 100% 30.20 in 0.2 mi Calm Calm - N/A Fog Fog
11:33 PM 60.8 °F 60.8 °F 100% 30.20 in 0.2 mi Calm Calm - N/A Fog Fog
11:36 PM 60.8 °F 60.8 °F 100% 30.20 in 0.5 mi Calm Calm - N/A Fog Fog
11:53 PM 61.0 °F 60.1 °F 97% 30.20 in 0.5 mi Calm Calm - N/A Fog Fog